KA9LHE Weather Reports


time (UTC)temp
F
wind
direction
speed
knots
gust
knots
rain 1hr
in
rain 24hr
in
rain mn
in
humidity
%
barometer
mb
20260509013110 54 158 4.3 7.8 0.00 0.08 0.08 94 1008.7
20260509011605 54 192 4.3 7.0 0.00 0.08 0.08 94 1008.6
20260509004604 55 161 5.2 10.4 0.00 0.08 0.08 93 1008.5
20260509003102 55 162 5.2 11.3 0.00 0.08 0.08 93 1008.5
20260509001600 55 180 4.3 8.7 0.01 0.08 0.08 92 1008.6
20260509000059 55 173 5.2 7.8 0.01 0.08 0.08 92 1008.6
20260508234600 55 178 4.3 8.7 0.01 0.08 0.08 93 1008.7
20260508233103 55 203 4.3 8.7 0.01 0.08 0.08 93 1008.7
20260508231600 55 195 5.2 11.3 0.01 0.07 0.07 93 1008.8
20260508230100 55 168 5.2 9.6 0.01 0.07 0.07 94 1008.9
20260508224613 55 183 4.3 8.7 0.01 0.07 0.07 94 1008.9
20260508223058 55 188 2.6 7.8 0.01 0.07 0.07 93 1009.0
20260508221610 55 174 5.2 8.7 0.00 0.06 0.06 93 1009.0
20260508220100 55 183 6.1 11.3 0.00 0.06 0.06 93 1009.0
20260508214559 55 209 4.3 9.6 0.01 0.06 0.06 93 1009.1
20260508213100 55 186 3.5 8.7 0.01 0.06 0.06 93 1009.1
20260508211600 55 210 3.5 8.7 0.01 0.06 0.06 92 1009.3
20260508210100 55 218 3.5 10.4 0.01 0.06 0.06 91 1009.5
20260508204600 56 232 3.5 8.7 0.00 0.05 0.05 90 1009.7
20260508203107 57 213 2.6 8.7 0.00 0.05 0.05 88 1009.7
20260508201601 58 210 3.5 13.9 0.01 0.05 0.05 84 1009.8
20260508200110 59 157 1.7 5.2 0.01 0.05 0.05 80 1009.8
20260508194557 59 56 0.9 1.7 0.01 0.05 0.05 79 1009.8
20260508193106 59 56 0.0 3.5 0.01 0.05 0.05 76 1009.9
20260508191559 59 0 0.0 2.6 0.00 0.04 0.04 77 1010.0
20260508190101 59 0 0.0 1.7 0.00 0.04 0.04 78 1010.1
20260508184558 57 0 0.0 1.7 0.00 0.04 0.04 77 1010.4
20260508183139 57 125 0.9 5.2 0.00 0.04 0.04 79 1010.6
20260508181613 57 0 0.9 4.3 0.00 0.04 0.04 83 1010.8
20260508180106 56 223 0.0 4.3 0.00 0.04 0.04 84 1011.0
20260508174559 55 0 0.0 6.1 0.00 0.04 0.04 87 1011.2
20260508173113 55 0 0.0 2.6 0.00 0.04 0.04 89 1011.5
20260508171600 54 0 0.0 5.2 0.00 0.04 0.04 89 1011.7
20260508170100 54 0 0.0 3.5 0.00 0.04 0.04 89 1011.9
20260508164609 53 246 2.6 6.1 0.01 0.04 0.04 88 1012.4
20260508163110 54 201 4.3 8.7 0.01 0.04 0.04 88 1012.3
20260508161600 52 198 3.5 7.8 0.01 0.04 0.04 91 1012.2
20260508154601 51 212 6.1 10.4 0.00 0.03 0.03 92 1012.5
20260508153058 51 182 5.2 10.4 0.00 0.03 0.03 92 1012.7
20260508151601 50 244 0.9 6.1 0.00 0.03 0.03 91 1012.6
20260508150124 50 225 2.6 7.8 0.00 0.03 0.03 90 1012.9
20260508144605 51 0 1.7 8.7 0.00 0.03 0.03 89 1013.0
20260508143106 51 231 4.3 11.3 0.00 0.03 0.03 88 1013.2
20260508141606 52 244 3.5 8.7 0.00 0.03 0.03 86 1013.1
20260508140105 52 200 5.2 10.4 0.00 0.03 0.03 85 1012.8
20260508134559 52 221 4.3 13.0 0.00 0.03 0.03 85 1012.9
20260508133059 51 222 1.7 7.0 0.00 0.03 0.03 84 1012.7
20260508131601 51 0 3.5 9.6 0.00 0.03 0.03 84 1012.8
20260508130059 51 204 0.9 7.8 0.00 0.03 0.03 84 1012.9
20260508124602 51 200 1.7 5.2 0.00 0.03 0.03 84 1012.8
20260508123100 50 192 2.6 7.0 0.00 0.03 0.03 85 1012.6
20260508121600 50 192 2.6 7.0 0.00 0.03 0.03 85 1012.7
20260508114603 49 213 0.0 3.5 0.00 0.03 0.03 86 1012.5
20260508113127 48 0 0.0 2.6 0.00 0.03 0.03 87 1012.3
20260508111558 47 0 0.0 3.5 0.00 0.03 0.03 86 1012.3
20260508110058 47 213 0.9 7.0 0.00 0.03 0.03 86 1012.2
20260508104602 47 204 1.7 5.2 0.00 0.03 0.03 86 1012.1
20260508103106 47 0 2.6 7.0 0.00 0.03 0.03 85 1011.9
20260508101558 47 184 1.7 4.3 0.00 0.03 0.03 85 1011.9
20260508100057 47 0 1.7 4.3 0.00 0.03 0.03 85 1012.2
20260508094601 47 184 2.6 4.3 0.00 0.03 0.03 85 1012.2
20260508093059 47 0 0.9 4.3 0.01 0.03 0.03 85 1012.3
20260508091558 47 202 0.0 4.3 0.01 0.03 0.03 86 1012.3
20260508084601 46 0 2.6 8.7 0.01 0.03 0.03 88 1012.3
20260508083058 46 196 3.5 7.0 0.00 0.02 0.02 90 1012.4
20260508081610 45 205 1.7 7.0 0.00 0.02 0.02 92 1012.3
20260508080059 44 0 1.7 5.2 0.00 0.02 0.02 94 1012.3
20260508074604 43 171 1.7 4.3 0.00 0.02 0.02 94 1012.2
20260508073108 43 165 2.6 4.3 0.01 0.02 0.02 94 1012.2
20260508071602 43 220 0.9 2.6 0.01 0.02 0.02 94 1012.3
20260508070104 43 220 0.0 2.6 0.01 0.02 0.02 94 1012.4
20260508064608 43 220 0.0 1.7 0.01 0.02 0.02 94 1012.5
20260508063100 44 220 0.0 1.7 0.00 0.01 0.01 94 1012.7
20260508061604 43 0 0.0 0.9 0.00 0.01 0.01 93 1012.8
20260508060108 43 0 0.0 0.0 0.00 0.01 0.01 92 1012.9
20260508054626 44 0 0.0 0.0 0.00 0.01 0.01 92 1013.0
20260508053115 44 0 0.0 0.9 0.00 0.01 0.01 91 1013.0
20260508051602 45 0 0.0 0.0 0.01 0.01 0.01 91 1013.1
20260508050058 46 0 0.0 1.7 0.01 0.01 0.01 91 1013.1
20260508044559 46 0 0.0 1.7 0.01 0.01 0.01 90 1013.1
20260508043100 47 220 0.0 1.7 0.01 0.01 0.01 89 1013.1
20260508041559 47 0 0.0 0.0 0.00 0.00 0.00 89 1013.2
20260508040104 48 0 0.0 1.7 0.00 0.00 0.00 88 1013.1
20260508034557 48 0 0.0 1.7 0.00 0.00 0.00 88 1013.3
20260508033058 48 220 0.0 2.6 0.00 0.00 0.00 87 1013.4
20260508031605 48 0 0.0 3.5 0.00 0.00 0.00 86 1013.6
20260508030105 49 250 1.7 6.1 0.00 0.00 0.00 84 1013.7
20260508024558 50 267 0.9 3.5 0.00 0.00 0.00 80 1014.0
20260508023058 50 165 1.7 6.1 0.00 0.00 0.00 78 1013.0
20260508021606 50 174 3.5 6.1 0.00 0.00 0.00 75 1013.0
20260508020057 50 164 4.3 7.8 0.00 0.00 0.00 74 1012.5
20260508014558 50 167 4.3 8.7 0.00 0.00 0.00 73 1012.5